Tracking 18843 objects as of 21-November-2017
HD Live streaming from Space Station
objects crossing your sky now

FENGYUN 1C DEB

Track FENGYUN 1C DEB now!
10-day predictions


NORAD ID: 30708
Int'l Code: 1999-025ARS
Perigee: 858.3 km
Apogee: 869.4 km
Inclination: 99.0 °
Period: 102.1 minutes
Semi major axis: 7234 km
RCS: 0.009 m2 (small)
Launch date: May 10, 1999
Source: People's Republic of China (PRC)
Launch site: Taiyaun Space Center, China (TSC)

Note: This is SATELLITE DEBRIS
aabbcc
Your satellite tracking list
Your tracking list is empty




NASA's NSSDC Master Catalog

Two Line Element Set (TLE):
1 30708U 99025ARS 17324.27713257 +.00000064 +00000-0 +60733-4 0  9997
2 30708 098.9744 346.9911 0007673 249.6439 170.4055 14.10787878553077
Source of the keplerian elements: AFSPC